Location: ??????
(55.7522°N, 37.6156°E)
Time: 18:18:07
(UTC+00:00)

Cosmos 2151 Rocket - Pass Details

Date: 14 June 2025
Orbit: 613 x 635 km, 82.5° (Epoch: 13 July)

Event Time Altitude Azimuth Distance (km) Brightness Sun altitude
Rises 22:36:19 0° 347° (NNW) 2,909 8.2 -9.7°
Reaches altitude 10° 22:38:32 10° 346° (NNW) 2,001 7.2 -9.6°
Maximum altitude 22:42:58 80° 261° (W) 641 3.6 -9.4°
Drops below altitude 10° 22:47:24 10° 174° (S) 1,999 5.6 -9.2°
Enters shadow 22:47:26 10° 174° (S) 2,011 5.6 -9.2°
